This is the latest recevied weather packets stored in our database for station/object WD7OO. If no packets are shown the sender has not sent any weather packets the latest 10 day(s).
| Time | Temp. | Humidity | Pressure | Rain* | Wind** | Luminosity | Snow |
|---|---|---|---|---|---|---|---|
| 1777697178 | 0° C | 91% | 1019.6 hPa | 0 mm | - | 0 W/m² | - |
| 1777696875 | 0° C | 91% | 1019.6 hPa | 0 mm | - | 0 W/m² | - |
| 1777696573 | 0° C | 91% | 1019.4 hPa | 0 mm | - | 0 W/m² | - |
| 1777696269 | 0° C | 91% | 1019.7 hPa | 0 mm | - | 0 W/m² | - |
| 1777695963 | 0° C | 90% | 1019.7 hPa | 0 mm | - | 0 W/m² | - |
| 1777695661 | 0° C | 90% | 1019.6 hPa | 0 mm | - | 0 W/m² | - |
| 1777695359 | 0° C | 90% | 1019.6 hPa | 0 mm | - | 0 W/m² | - |
| 1777695055 | 0° C | 89% | 1019.3 hPa | 0 mm | - | 0 W/m² | - |
| 1777694752 | 0.56° C | 88% | 1019.7 hPa | 0 mm | - | 0 W/m² | - |
| 1777694449 | 0.56° C | 88% | 1019.6 hPa | 0 mm | - | 0 W/m² | - |
| 1777694145 | 0.56° C | 87% | 1019.3 hPa | 0 mm | - | 0 W/m² | - |
| 1777693843 | 0.56° C | 87% | 1019.4 hPa | 0 mm | - | 0 W/m² | - |
| 1777693540 | 0.56° C | 86% | 1019.4 hPa | 0 mm | - | 0 W/m² | - |
| 1777693238 | 1.11° C | 86% | 1019.7 hPa | 0 mm | - | 0 W/m² | - |
| 1777692936 | 1.11° C | 85% | 1019.4 hPa | 0 mm | - | 0 W/m² | - |
| 1777692633 | 1.11° C | 84% | 1019.3 hPa | 0 mm | - | 0 W/m² | - |
| 1777692329 | 1.11° C | 83% | 1019.3 hPa | 0 mm | - | 0 W/m² | - |
| 1777692026 | 1.67° C | 83% | 1019.1 hPa | 0 mm | - | 0 W/m² | - |
| 1777691724 | 1.67° C | 82% | 1019.2 hPa | 0 mm | - | 0 W/m² | - |
| 1777691422 | 2.22° C | 80% | 1019.1 hPa | 0 mm | - | 0 W/m² | - |
| 1777691121 | 2.22° C | 78% | 1019 hPa | 0 mm | - | 0 W/m² | - |
| 1777690818 | 2.22° C | 78% | 1019.1 hPa | 0 mm | - | 0 W/m² | - |
| 1777690515 | 2.78° C | 76% | 1019.2 hPa | 0 mm | - | 0 W/m² | - |
| 1777690213 | 2.78° C | 74% | 1019.2 hPa | 0 mm | - | 0 W/m² | - |
| 1777689910 | 2.78° C | 75% | 1019 hPa | 0 mm | - | 0 W/m² | - |
* Rain latest hour (hover to see other rain measurements)
** Current wind speed in m/s (hover to see current wind gust speed)